GFSGBSN_850_thetae_159.txt.gz
Theta_e
309 309 309 310 310 311 310 309 308 308 309 309 309 309 309 309 309 310 311 311 312 314 316 317 317 316 319 319 320 320 320 321 324 318 318 320 322 326 327 328 325 325 330 329 340 347 346
308 307 307 308 308 308 309 311 311 311 309 309 309 309 310 310 310 310 310 311 311 313 315 316 316 315 318 319 320 319 320 324 323 319 318 319 322 323 327 326 325 331 338 341 345 348 348
307 307 306 306 306 306 307 307 308 309 311 312 311 309 310 310 311 311 311 311 311 312 314 315 315 315 317 321 320 324 327 328 325 320 318 319 321 324 325 327 327 336 343 345 346 347 348
305 305 305 305 305 305 305 305 305 306 307 308 310 312 312 310 310 312 312 312 312 312 313 314 315 315 318 322 319 320 324 327 322 319 318 320 321 321 326 325 331 338 340 343 344 345 347
306 306 305 305 305 305 305 304 305 305 306 306 307 308 311 312 311 311 312 312 312 312 313 315 315 316 320 322 320 320 327 326 322 320 321 321 320 321 324 328 338 338 341 342 344 344 347
307 306 306 305 305 305 305 305 305 305 305 305 306 307 308 309 312 311 312 312 311 312 319 319 316 320 319 324 325 326 327 325 320 321 318 320 322 325 326 330 337 341 341 341 345 344 346
305 305 304 304 304 304 303 303 304 305 305 305 306 306 307 308 310 312 312 312 315 316 317 323 322 320 322 323 323 325 326 325 318 319 321 321 324 324 326 328 330 339 341 342 342 342 345
303 303 303 302 303 303 303 303 303 303 303 304 304 306 307 307 308 311 310 314 310 309 311 315 317 319 322 322 322 324 326 325 319 319 320 322 323 325 326 327 331 337 341 342 335 339 344
301 301 302 302 302 302 302 303 303 303 304 304 305 305 306 308 308 311 310 312 309 309 311 315 317 316 317 320 322 323 324 323 321 320 322 322 323 323 326 327 331 334 341 338 340 334 340
301 301 301 301 302 302 302 302 303 303 304 304 305 305 306 307 309 308 311 309 309 310 319 321 319 319 319 321 323 324 326 323 320 321 320 322 321 324 326 328 329 333 330 331 330 332 332
302 302 301 302 302 301 301 301 302 302 302 303 303 304 304 306 306 307 309 309 310 314 320 320 320 320 322 323 324 324 325 325 323 321 321 323 322 324 325 327 327 330 328 329 330 330 335
301 301 302 302 301 300 299 300 300 300 301 301 301 302 302 304 306 307 308 309 313 321 322 322 322 322 324 324 325 322 322 325 322 321 320 322 320 323 325 324 326 325 326 327 328 331 333
303 302 301 301 301 300 300 300 300 300 300 301 301 301 301 302 305 307 307 309 317 321 321 322 323 322 324 324 324 326 324 326 326 323 322 321 322 321 322 325 324 325 329 333 334 333 333
303 303 303 302 302 301 301 301 302 302 301 301 302 302 302 303 305 307 306 311 316 318 322 321 320 321 324 324 324 327 326 328 324 322 322 322 321 322 322 325 326 325 328 334 335 333 333
304 303 303 303 302 301 302 303 303 302 301 300 302 303 303 304 305 307 308 312 315 316 319 320 321 321 321 323 324 326 328 328 326 322 322 322 322 321 322 323 326 325 326 328 330 327 329
302 302 303 303 303 302 301 302 302 302 301 300 300 302 303 307 309 308 309 311 312 312 314 317 321 321 321 322 325 325 328 329 327 323 323 323 324 323 324 322 322 326 326 327 328 331 331
304 303 302 302 301 301 301 300 301 301 301 300 301 301 305 310 308 306 309 309 311 311 312 315 318 320 322 322 323 326 326 325 329 323 323 322 324 325 325 324 324 325 326 327 329 330 333
302 302 303 302 302 301 300 300 301 300 300 301 302 303 307 307 311 307 310 310 310 312 312 313 314 315 319 319 320 322 326 326 325 323 324 324 324 325 326 325 326 326 326 328 329 333 331
300 300 300 300 301 301 301 301 301 300 300 302 302 301 302 307 310 309 311 312 312 312 313 313 314 315 315 318 319 318 319 318 319 324 327 323 325 326 326 325 323 327 326 327 329 331 334
302 302 300 300 301 301 301 301 300 299 300 302 302 303 305 307 306 308 310 313 313 313 313 313 313 313 314 315 315 317 318 317 316 321 319 322 327 328 327 328 328 327 326 327 329 331 332
299 300 300 300 300 301 301 301 300 299 301 302 302 303 303 306 308 305 308 311 313 315 314 315 314 314 314 315 316 316 316 317 317 317 322 323 326 326 327 328 328 328 327 327 329 329 331
300 300 300 300 300 301 300 301 301 300 301 302 303 303 304 303 304 307 307 311 312 310 312 316 317 314 316 316 316 316 316 317 319 318 319 323 326 327 326 326 326 327 327 328 327 328 329
299 300 300 300 300 300 300 300 301 301 303 301 302 303 304 303 303 304 306 308 309 308 310 311 311 311 315 317 315 317 318 318 318 320 320 320 328 329 328 327 327 326 327 327 328 328 328
300 299 299 299 300 299 299 300 301 300 302 303 302 302 303 304 303 303 305 304 305 306 308 307 307 309 314 312 314 317 317 319 320 322 320 322 328 327 329 329 330 330 329 328 328 329 329
299 298 298 298 299 300 299 301 300 300 302 301 302 303 302 304 303 303 303 304 303 304 306 307 307 308 310 312 319 322 322 323 322 322 323 320 322 323 327 330 331 330 328 328 328 330 329
298 298 298 298 298 298 299 300 300 300 300 301 301 301 303 303 303 303 305 304 306 306 308 308 308 309 310 314 319 325 323 321 322 321 321 320 324 323 327 328 332 330 332 328 330 333 333
301 301 301 300 300 300 299 298 299 299 300 300 301 300 302 303 302 303 303 304 304 305 305 307 307 308 311 319 322 323 322 322 322 323 324 321 321 325 325 327 331 332 335 330 333 334 335
302 302 301 301 301 301 300 300 299 299 299 300 300 300 300 302 302 302 303 303 303 305 305 305 307 310 313 318 322 324 324 323 324 324 326 325 326 324 326 328 329 337 336 333 338 336 334
302 302 302 301 301 302 301 301 301 300 300 300 301 300 300 300 302 302 302 303 303 303 304 304 305 307 310 316 317 318 321 326 325 326 328 329 326 327 330 328 337 336 340 336 332 338 337

GFSGBSN_850_thetae_162.txt.gz
Theta_e
308 308 308 308 308 308 308 308 310 310 311 311 310 310 310 311 311 311 311 311 312 313 314 316 316 317 317 323 323 321 323 319 319 323 324 322 324 326 329 331 329 331 334 334 344 346 343
307 307 306 306 306 306 306 306 307 307 307 309 310 311 311 310 311 311 311 311 312 312 313 315 316 316 316 323 322 320 320 321 324 323 321 322 324 326 328 330 330 335 340 335 344 346 348
307 306 306 306 305 305 305 305 305 305 306 307 307 308 310 312 312 311 312 312 312 312 313 314 315 315 318 321 321 319 326 327 329 325 321 322 323 325 327 330 332 341 344 345 346 348 349
307 307 306 306 306 306 306 306 306 306 305 306 306 307 308 309 311 312 311 313 313 313 313 314 314 314 321 321 320 320 323 324 324 324 321 321 322 325 327 328 336 341 344 345 348 347 348
306 305 305 304 304 303 304 304 304 305 305 306 306 307 307 307 309 311 312 313 313 312 313 314 315 318 323 322 322 321 322 325 321 320 320 321 322 325 327 330 338 341 338 341 348 345 349
305 304 303 303 303 303 303 303 303 303 303 304 305 306 307 308 308 310 313 312 312 311 315 319 318 322 322 325 326 323 324 323 322 321 321 322 323 326 329 333 336 337 339 338 342 347 347
302 302 302 302 302 302 303 303 303 304 304 304 305 305 306 307 308 309 312 312 318 323 323 325 326 323 323 325 324 325 324 322 322 323 324 323 325 326 329 334 336 336 337 337 339 344 347
301 301 302 302 302 302 302 303 303 303 304 305 305 306 306 306 308 310 311 314 310 310 315 317 317 322 324 323 325 327 325 327 325 325 325 324 325 328 330 332 334 335 337 337 341 344 345
302 302 302 302 302 302 302 302 302 302 303 303 304 304 306 307 308 309 312 310 309 309 316 319 318 318 319 322 324 326 326 328 327 324 325 325 326 328 329 330 333 336 337 337 338 342 343
301 301 301 301 301 301 301 301 301 301 301 302 302 302 303 306 309 307 313 310 309 310 321 324 321 321 319 321 323 324 327 328 328 324 324 325 326 327 327 330 333 338 336 336 339 339 337
301 301 301 301 301 301 301 301 301 301 301 301 302 302 302 302 304 308 309 309 309 313 326 324 323 322 323 323 324 324 327 327 326 323 324 324 325 325 327 330 333 336 336 337 338 338 336
303 303 303 302 301 301 301 301 301 302 302 302 302 302 302 303 304 306 307 308 311 323 326 324 324 324 325 323 325 325 326 328 326 324 324 325 324 326 328 330 332 333 334 336 336 336 336
302 305 304 304 304 302 302 301 301 301 302 302 302 302 302 302 306 304 306 310 319 324 324 324 324 325 326 325 326 327 327 330 329 325 324 323 324 326 327 329 331 332 335 336 337 337 337
302 303 303 303 304 304 303 302 301 301 301 302 302 302 303 303 303 304 308 315 320 322 324 324 324 325 327 326 325 327 328 330 329 326 325 324 324 325 326 329 330 331 335 336 339 338 337
304 304 304 303 303 303 302 302 301 302 301 301 301 304 304 305 304 305 310 316 320 321 322 323 324 324 326 327 326 327 328 329 330 329 326 326 325 325 326 327 331 332 336 335 336 337 337
303 304 303 303 303 302 302 301 301 302 302 300 300 304 306 305 307 310 311 314 318 317 318 321 324 325 326 325 327 326 329 328 329 330 327 326 326 325 326 327 328 333 333 334 335 338 340
302 301 301 301 301 300 302 302 301 301 301 300 304 305 307 308 309 311 312 313 314 315 315 319 322 324 325 326 326 327 327 328 328 330 329 326 326 327 326 326 327 327 331 333 335 335 336
301 301 302 301 301 301 301 302 301 301 301 304 305 308 306 308 312 312 313 314 312 313 314 316 317 319 324 325 325 327 328 327 328 329 329 328 326 327 326 327 327 329 330 332 334 336 334
300 300 300 300 300 301 301 301 301 300 299 304 305 305 304 306 310 313 314 314 313 314 314 315 317 318 321 322 324 325 326 324 324 329 330 329 327 328 327 328 328 327 328 330 331 333 335
302 301 300 301 300 301 301 301 301 301 299 303 305 307 307 309 309 311 312 313 313 313 315 314 316 317 319 319 322 324 323 321 323 327 325 329 329 330 329 329 328 328 327 328 329 332 331
300 300 300 300 300 300 300 301 300 302 299 303 305 306 306 308 310 309 310 311 312 314 315 316 316 316 318 319 320 322 322 321 321 318 326 330 332 332 331 330 328 328 328 329 330 330 330
299 299 299 300 300 300 299 300 300 302 300 304 304 305 306 306 306 307 308 312 313 314 314 316 318 317 318 319 320 321 321 322 324 323 326 327 331 332 332 331 331 329 329 329 329 329 330
299 300 299 298 298 300 300 300 300 302 300 304 305 304 305 305 306 306 307 308 311 310 313 314 314 315 318 319 318 318 320 321 323 325 325 326 328 331 331 330 330 331 331 331 330 330 330
298 298 299 299 298 298 299 300 301 301 300 302 304 304 305 306 306 306 306 306 307 307 310 310 310 313 316 312 314 317 318 319 321 323 324 326 328 331 331 330 332 330 330 330 330 330 331
299 300 301 301 301 299 299 298 299 301 301 301 302 303 303 306 304 305 305 306 305 306 307 307 308 309 311 313 319 322 322 321 321 321 322 323 326 327 330 332 332 330 332 331 330 331 331
302 302 302 302 301 301 301 300 299 300 300 300 301 302 302 303 305 304 305 305 306 308 308 308 309 309 310 314 320 322 322 322 323 322 322 323 324 326 327 329 332 331 332 331 332 334 333
301 301 302 302 302 302 301 301 301 299 299 300 301 301 303 302 302 304 305 306 305 306 308 307 309 310 312 316 320 322 322 322 324 325 325 325 326 324 325 327 329 330 332 332 335 333 332
300 301 302 302 303 301 301 301 301 301 300 300 301 302 302 302 303 303 304 304 305 305 307 308 307 311 313 316 321 322 322 322 323 325 326 327 327 326 325 327 328 332 337 335 334 333 340
300 302 303 302 301 301 301 301 301 301 301 300 300 302 301 302 302 303 303 304 304 304 305 305 307 308 310 317 319 322 325 324 324 325 325 329 326 326 326 327 331 327 336 334 341 342 342

GFSGBSN_850_thetae_165.txt.gz
Theta_e
308 307 307 307 306 306 306 306 306 307 308 308 309 311 312 312 312 312 312 312 312 313 314 315 315 317 318 327 325 325 326 322 319 326 330 329 329 330 332 334 334 335 337 339 342 341 339
307 307 307 307 307 307 306 306 306 306 306 306 307 308 309 310 312 312 312 312 312 313 313 314 315 315 316 324 325 326 324 325 326 328 329 327 327 328 330 332 334 337 337 339 343 342 341
307 306 306 306 305 305 306 306 306 306 307 307 307 307 307 308 309 311 313 313 313 313 313 313 314 314 321 323 323 325 329 330 329 326 327 325 325 327 330 333 333 340 339 342 344 344 344
306 306 305 304 304 303 303 303 303 304 304 305 306 307 308 308 308 310 311 313 313 314 313 313 313 313 323 323 323 322 328 330 329 329 324 324 324 326 328 333 335 340 340 343 345 345 344
303 303 303 302 302 303 303 303 303 303 304 304 305 305 306 307 309 309 311 313 313 314 313 313 315 322 325 323 322 323 325 328 328 328 326 323 324 325 329 333 337 339 342 342 343 344 343
301 302 302 302 303 303 303 303 304 304 304 304 305 306 306 306 308 309 310 313 313 314 314 314 323 327 324 325 324 324 325 328 326 324 323 323 324 328 331 334 336 339 339 344 342 342 343
303 303 302 302 302 302 302 302 302 303 303 303 304 305 306 307 307 309 312 317 322 326 324 324 328 324 325 326 327 324 325 327 325 324 325 324 326 329 334 334 335 337 340 341 339 340 342
302 302 302 302 301 301 302 302 302 302 302 302 303 303 304 306 308 310 316 318 314 312 317 320 322 326 325 326 326 324 327 327 327 327 326 326 327 331 334 335 335 337 338 338 338 342 340
301 301 301 301 301 301 301 301 301 302 302 302 302 303 304 305 308 313 315 314 313 313 318 321 321 321 324 325 326 327 327 327 328 327 327 327 328 330 333 335 335 337 337 338 340 341 340
301 301 301 301 301 301 301 301 302 302 302 302 302 303 303 305 311 310 317 314 313 313 322 326 324 322 321 323 326 326 327 327 330 329 327 328 329 330 332 334 334 336 336 337 338 342 342
302 301 303 303 303 302 302 302 302 302 302 302 303 303 303 303 304 312 313 312 311 315 329 328 326 324 322 323 325 325 327 328 330 329 328 327 327 329 331 333 334 335 336 336 337 340 338
302 302 303 303 303 304 303 302 302 302 302 302 302 303 303 308 309 311 311 311 313 323 329 327 326 325 325 323 325 325 326 327 328 330 329 327 327 329 331 333 334 335 337 338 337 339 340
303 304 304 304 304 304 304 304 302 301 301 302 302 302 302 303 309 310 310 312 320 326 329 328 327 326 327 325 325 327 327 330 331 329 328 326 327 328 329 331 334 335 336 339 339 339 339
304 305 305 305 304 303 303 303 303 302 301 301 302 302 305 308 308 309 311 316 322 327 328 328 328 327 328 327 326 328 328 330 330 330 328 327 326 327 328 330 334 335 336 338 341 339 338
302 302 302 302 302 302 302 302 303 302 302 301 301 306 308 309 310 310 312 318 323 325 327 328 327 328 328 328 327 328 329 329 331 331 330 328 328 328 328 329 332 335 337 336 338 339 339
301 301 301 302 302 302 302 301 302 302 302 302 302 308 308 309 310 311 314 316 321 323 323 324 327 327 329 329 328 328 329 329 329 331 331 329 329 328 328 328 330 333 335 336 338 342 340
301 301 301 301 301 301 301 301 301 302 302 302 308 308 311 310 311 312 315 315 317 317 319 320 324 327 329 329 329 329 329 330 329 330 331 330 329 329 329 328 328 331 334 335 335 337 339
302 302 302 301 302 301 301 301 301 301 302 304 306 311 310 308 312 313 315 315 315 317 317 319 320 322 326 328 330 329 330 329 329 330 331 331 329 329 328 329 329 329 331 333 337 340 337
301 300 301 300 300 300 301 301 301 301 302 303 307 308 308 307 310 312 314 315 316 317 317 317 318 320 323 325 329 329 329 330 328 330 330 332 331 330 329 329 329 328 330 331 333 336 338
300 300 301 300 300 300 300 300 300 301 302 302 306 310 309 309 309 311 314 317 317 316 317 317 318 319 321 323 325 328 328 329 326 328 327 332 331 331 330 331 330 329 328 329 331 335 334
300 300 301 301 299 300 299 299 300 300 301 303 307 310 309 312 312 313 312 313 314 315 316 316 319 318 319 322 323 325 327 327 325 326 327 331 333 331 330 330 330 330 329 329 329 331 333
299 299 299 299 299 298 299 301 301 300 301 304 306 307 307 308 308 310 310 310 312 313 314 318 319 321 319 320 322 324 325 327 326 326 327 330 333 332 332 330 330 331 330 330 330 329 330
298 298 299 299 299 300 298 298 300 300 302 305 306 307 307 307 308 309 310 310 310 314 314 314 317 319 320 320 319 320 320 323 326 328 327 329 331 334 334 331 332 332 332 331 331 330 330
300 302 302 302 302 302 302 300 298 300 301 304 305 306 306 308 309 309 309 308 309 311 311 312 313 315 317 315 316 318 319 322 324 327 328 330 334 332 334 334 335 333 333 332 331 332 332
299 300 301 302 302 302 302 302 301 299 300 303 304 305 305 307 306 307 307 308 308 308 309 308 309 311 312 314 319 322 322 323 323 325 327 328 331 332 333 334 333 332 331 332 333 333 333
300 299 300 302 302 302 303 302 302 301 299 301 303 303 305 305 306 306 307 306 308 309 310 309 308 310 312 316 318 321 323 323 324 324 324 325 328 331 333 334 336 333 332 331 332 333 332
299 300 302 303 304 302 302 302 301 302 301 300 303 304 304 304 304 304 306 307 307 308 309 309 310 310 311 316 317 319 320 322 324 325 326 325 327 328 331 332 332 332 332 332 335 335 333
301 302 303 304 303 301 301 301 301 302 301 301 302 303 303 303 304 304 304 305 305 306 308 309 310 310 312 316 317 318 320 322 324 326 328 327 327 328 329 330 332 329 330 333 336 333 333
303 303 304 304 303 301 300 301 300 300 301 301 302 303 304 304 303 304 304 304 304 305 306 307 308 310 312 317 320 322 322 323 325 326 326 331 329 329 328 329 329 329 330 334 335 343 340

GFSGBSN_850_thetae_168.txt.gz
Theta_e
308 308 308 307 307 307 307 307 307 307 307 307 307 308 309 310 311 312 313 313 313 313 313 314 314 315 316 323 324 324 326 324 321 320 327 330 333 334 333 334 335 335 337 341 340 339 338
307 307 307 306 306 305 305 305 305 306 306 307 307 308 308 309 310 311 312 313 314 314 313 313 313 314 314 321 322 327 326 325 325 322 328 330 332 331 332 332 335 336 337 341 340 340 340
305 305 304 303 304 303 303 303 304 304 304 304 305 306 307 308 309 310 311 312 313 314 314 314 313 313 317 321 324 326 327 329 327 326 329 330 330 329 330 332 334 337 338 342 342 342 341
302 302 302 302 303 303 303 304 304 304 304 304 305 305 306 306 307 309 310 312 313 314 315 314 313 312 319 322 323 324 325 329 329 328 327 330 328 328 329 330 334 337 339 342 343 343 344
303 303 303 303 303 303 303 303 303 303 304 304 305 306 306 307 307 308 311 311 313 314 314 314 313 315 324 325 324 324 324 330 330 329 328 328 326 327 328 330 333 336 341 343 344 343 346
302 302 302 302 302 302 302 302 303 303 302 303 304 304 305 306 308 308 311 312 314 314 315 313 316 328 329 326 325 323 324 328 329 330 329 327 326 327 329 331 334 337 340 344 345 343 347
302 302 302 302 302 302 302 302 302 302 303 303 303 304 305 306 307 309 313 319 323 326 321 325 325 322 324 326 325 324 324 326 328 328 329 328 326 328 330 332 334 336 342 344 343 341 343
302 302 302 302 302 302 302 302 302 303 303 303 304 304 304 306 307 311 316 321 317 316 317 321 326 326 327 326 328 326 325 327 328 326 327 326 326 329 332 333 334 335 337 344 342 342 342
302 302 302 302 302 302 302 302 302 302 303 303 303 304 304 306 307 315 314 317 315 315 318 320 320 324 327 326 327 327 325 327 329 327 326 326 327 329 332 335 335 335 336 339 341 342 342
302 302 302 302 302 302 302 302 302 302 302 302 303 303 304 306 311 311 317 316 314 315 320 325 324 323 322 326 327 327 326 327 329 328 327 326 328 329 331 334 335 336 336 338 339 341 344
304 303 304 304 304 304 303 303 302 302 302 302 302 303 303 303 306 309 315 313 314 316 328 330 327 325 323 324 326 326 327 328 329 329 328 328 327 329 330 332 334 335 336 336 337 340 341
306 305 306 305 305 304 303 303 303 302 302 302 302 303 302 304 309 311 312 313 314 321 329 330 327 326 325 323 325 326 327 328 328 329 330 329 328 329 330 332 333 335 335 336 337 337 341
303 303 303 302 302 302 302 303 302 302 302 302 302 303 303 302 307 311 312 313 319 324 329 330 328 327 326 325 324 326 327 330 330 330 331 330 329 329 329 330 333 334 334 336 341 341 338
301 301 301 302 301 303 302 302 302 302 302 302 302 303 304 308 310 311 311 316 321 326 327 331 329 328 327 327 325 325 327 328 329 330 331 332 329 328 329 329 331 334 334 337 343 342 338
302 301 301 301 301 301 301 301 302 302 302 303 302 304 307 309 311 311 312 316 322 325 329 329 330 329 328 328 327 325 326 327 329 329 332 330 329 328 329 329 330 333 334 335 336 339 339
301 302 303 302 302 302 302 301 301 302 302 302 302 307 310 309 311 312 314 316 319 323 326 325 327 330 330 329 328 327 327 328 328 330 331 331 330 329 328 329 329 331 334 335 337 342 344
300 301 300 300 300 300 300 301 301 302 302 302 306 309 310 311 311 312 315 315 316 317 318 321 323 327 329 330 330 329 328 329 329 329 330 331 331 330 330 328 328 328 331 335 336 337 341
300 300 299 300 300 300 300 300 300 300 301 304 305 309 311 312 312 312 314 314 314 316 317 320 322 323 324 326 329 331 330 329 330 330 330 331 331 333 330 329 329 329 330 333 339 343 339
298 299 299 301 301 299 300 300 299 299 300 303 306 308 309 310 312 312 312 314 315 316 317 318 320 321 322 323 327 329 331 331 330 330 331 332 332 334 331 330 330 329 329 332 334 337 342
299 299 299 298 299 298 298 298 299 300 300 302 305 311 311 309 309 311 311 313 314 315 316 318 319 319 320 321 323 326 329 331 330 330 329 332 331 335 333 331 330 330 328 329 331 336 336
298 298 298 298 298 299 299 298 298 301 300 303 306 310 309 311 312 313 315 313 315 318 318 317 319 319 320 321 322 324 327 330 330 329 329 330 336 335 332 331 331 330 329 329 331 333 333
298 299 301 302 303 303 303 302 299 298 300 304 305 307 308 310 309 311 312 313 313 315 316 318 318 319 321 321 321 324 325 328 330 330 328 330 335 334 333 332 331 331 331 330 329 329 331
300 300 300 302 302 303 303 303 302 300 300 304 305 306 307 308 309 310 311 312 312 312 313 315 317 319 322 321 319 319 319 321 324 327 330 330 333 338 336 333 331 331 331 331 331 331 330
300 300 300 300 301 302 303 303 303 302 300 302 304 305 306 308 309 310 310 311 311 311 313 312 312 316 317 317 315 317 320 321 323 326 327 334 338 335 334 336 336 333 332 331 332 333 334
299 299 300 301 302 303 304 304 303 303 302 302 303 305 306 307 307 308 308 309 309 309 310 310 310 310 311 313 316 321 322 324 325 325 327 329 331 331 336 336 334 333 333 333 334 335 335
300 301 302 303 304 305 302 302 302 302 302 302 302 303 303 306 307 306 308 307 309 309 310 310 310 310 309 313 316 321 324 324 325 325 326 328 335 336 334 335 337 337 335 332 332 337 338
302 303 304 304 304 304 302 300 301 302 302 302 303 303 303 305 304 305 306 307 307 309 310 310 311 312 310 313 315 318 321 323 325 326 327 328 333 333 334 336 334 334 334 333 337 335 333
301 302 304 303 304 303 301 300 300 300 301 302 303 304 303 303 304 304 305 305 306 307 309 308 310 311 313 312 313 315 317 319 322 326 329 329 330 329 333 335 336 332 332 335 344 336 336
302 302 303 303 304 304 301 300 300 300 300 301 302 304 304 305 304 305 305 305 305 305 306 307 309 309 312 316 317 318 319 319 324 324 326 330 330 330 331 331 335 330 332 331 331 335 341

GFSGBSN_850_thetae_171.txt.gz
Theta_e
307 307 306 305 306 305 305 305 305 305 305 306 306 307 308 309 309 310 311 312 313 314 314 314 314 314 313 315 318 323 322 325 324 322 322 324 328 330 333 333 332 333 337 337 338 339 342
303 303 303 303 304 304 304 304 304 304 305 305 305 305 306 307 308 310 310 311 312 313 314 314 314 313 312 316 320 324 323 326 325 323 320 324 329 331 333 332 329 333 339 337 338 337 339
303 303 303 303 303 303 304 304 304 304 304 305 305 306 306 307 307 308 310 311 312 313 314 315 314 313 312 317 321 325 326 327 327 326 321 324 329 330 331 328 331 331 336 338 338 339 335
303 303 303 303 303 303 303 303 303 303 304 304 305 305 306 307 307 308 309 311 312 313 313 314 314 312 312 319 320 321 325 327 327 327 326 327 329 330 330 329 328 327 332 338 339 339 339
303 302 302 302 302 302 302 302 303 303 303 304 304 305 306 306 307 308 309 311 312 313 313 313 314 312 320 321 323 323 324 324 327 329 327 327 329 330 327 325 324 327 332 340 343 342 344
303 303 302 302 302 302 302 302 303 303 303 304 304 305 305 306 307 308 310 316 316 315 314 313 315 323 323 327 325 323 324 324 326 329 328 327 328 323 322 322 325 327 335 342 343 342 345
303 303 302 302 302 302 302 302 303 303 303 303 303 304 305 306 307 308 314 321 319 325 321 325 322 321 320 322 326 324 324 324 326 329 327 329 323 322 322 324 326 329 341 341 342 343 345
302 302 302 302 302 302 302 302 302 302 303 303 303 303 304 305 307 312 314 316 316 315 316 316 318 323 324 323 326 326 323 324 325 327 327 327 326 325 326 326 328 329 339 342 342 343 343
303 303 303 303 303 303 303 303 303 302 303 303 303 303 303 305 307 315 314 316 316 315 315 316 318 319 323 326 327 326 324 324 325 327 326 326 326 327 326 328 329 330 330 341 341 341 340
302 303 303 302 302 302 302 302 302 302 302 302 303 303 303 304 312 311 314 314 314 314 314 320 320 321 320 325 327 328 326 324 326 326 325 324 325 325 325 327 330 330 332 334 342 341 341
301 301 301 301 301 301 301 302 301 301 302 302 302 303 303 303 303 307 310 313 313 314 322 329 323 323 322 324 326 326 327 325 325 327 325 324 323 324 325 327 329 331 332 335 339 339 339
300 300 300 300 301 301 301 301 301 301 301 301 302 302 303 303 303 307 312 313 313 316 324 328 325 323 321 323 325 326 326 325 327 327 326 325 327 324 324 328 329 330 331 331 332 334 339
302 302 301 301 301 301 301 302 301 301 301 301 301 302 302 302 304 307 309 312 315 319 326 328 324 322 322 321 322 324 325 325 325 326 326 326 326 325 326 325 328 329 327 329 332 332 333
300 300 301 301 302 302 302 302 302 302 302 301 301 301 303 303 304 309 312 311 317 322 322 327 326 324 323 322 321 323 324 325 326 326 325 326 328 327 327 324 325 327 327 328 335 337 336
300 300 300 300 300 300 300 300 300 300 301 302 301 302 303 304 306 310 312 312 317 321 325 320 321 327 325 325 323 322 322 324 327 326 326 326 328 329 328 326 325 324 328 328 329 330 335
299 299 299 299 299 299 299 300 300 300 299 300 302 305 303 311 309 311 312 313 314 316 317 316 318 325 327 325 323 322 322 324 326 328 327 327 329 329 328 327 324 324 327 330 328 331 334
298 298 298 299 300 300 298 298 300 299 298 300 304 306 308 311 311 312 312 313 313 313 314 316 318 318 320 323 326 324 323 324 325 326 327 326 326 328 327 324 323 322 324 326 327 329 332
298 298 298 298 298 298 298 298 298 298 299 300 305 306 304 308 309 312 312 313 312 312 313 314 315 316 318 322 324 324 326 325 325 326 326 327 325 327 328 325 325 323 323 323 326 332 332
298 298 298 298 298 299 300 300 299 298 299 300 304 305 306 309 310 311 312 312 312 312 313 313 315 317 318 320 322 325 327 328 328 327 326 327 327 327 328 328 325 324 324 323 323 327 331
299 299 300 301 302 303 303 303 303 301 298 300 305 306 309 310 310 311 312 312 311 312 313 314 314 316 318 319 319 322 322 323 325 326 330 330 326 327 328 329 327 324 325 325 323 325 328
299 299 300 299 300 302 302 303 303 303 300 299 304 306 307 310 308 309 310 311 314 314 315 316 315 317 318 319 320 320 322 323 325 326 326 328 327 327 328 329 329 328 326 326 324 324 327
299 300 300 300 300 300 301 302 303 303 303 301 304 306 306 307 308 309 309 311 312 313 313 315 315 317 319 320 320 319 318 320 324 321 325 327 331 330 330 329 329 329 329 326 326 325 326
299 299 299 300 301 302 303 304 305 304 303 302 303 303 305 306 307 308 309 310 311 311 311 312 314 314 319 314 314 314 315 316 318 319 322 327 333 332 330 331 331 330 330 329 327 326 326
299 300 302 303 303 304 305 305 303 303 303 303 302 303 304 305 306 307 307 309 309 310 310 310 311 313 313 311 311 314 316 318 320 320 321 324 329 335 330 335 335 332 330 330 329 331 327
300 301 303 304 305 305 304 303 301 302 302 303 302 303 303 305 304 306 307 307 308 309 310 310 311 311 311 310 312 318 320 321 322 322 322 322 329 332 331 332 333 332 333 331 330 330 331
301 302 302 304 303 304 304 301 300 301 302 302 303 303 303 304 304 304 305 306 308 308 310 310 310 310 312 310 312 318 321 324 324 325 322 322 327 332 332 331 333 334 335 333 333 332 335
302 302 302 303 303 303 304 301 300 301 300 302 302 304 303 305 303 304 306 306 306 307 308 309 308 310 312 312 311 314 317 319 322 326 327 326 328 329 331 333 333 334 333 333 336 338 345
303 303 303 302 302 302 304 303 300 300 300 301 302 303 304 304 304 304 304 305 306 306 307 307 308 311 313 315 314 312 314 316 318 319 323 329 328 329 332 334 334 334 335 339 333 336 343
303 303 303 304 303 303 303 305 303 300 299 301 302 303 304 304 304 304 303 305 305 306 306 306 307 308 310 314 314 315 318 319 323 320 320 323 325 328 330 333 332 331 333 329 330 332 331